COSMO-SKYMED 1 (31598 NORAD) Tracking and Keplerian Element Data

This shows tracking and keplerian element data for the satellite.

Feedback or suggestion? Click here.




ElementValue
Catalog31598
NameCOSMO-SKYMED 1
Epoch Orbit89809
Epoch Day13.18671921
Epoch Year2024
RAAN198.632
Inclination97.8856
Eccentricity0.0001219
Argument of Perigee96.4594
Mean Anonmoly263.6758
Mean Motion14.82154723
Decay Rate1.061E-05
L11 31598U 07023A 24013.18671921 .00001061 00000+0 13978-3 0 9991
L22 31598 97.8856 198.6320 0001219 96.4594 263.6758 14.82154723898098



Live tracking and technical data element details for COSMO-SKYMED 1 (NORAD 31598). COSMO-SKYMED 1 can be tracked NOW for your location showing map with azimuth and elevation plus other details from your city location.







IsCatalogInMostPopularTable: catalog: 31598, numindb: 603
Update: records affected: 1



GetName: 31598 COSMO-SKYMED 1

Hit Count: updated at: Sun, 14 Apr 2024 23:09:42 GMT